Location: Unspecified
(0.0000°N, 0.0000°E)
Time: 11:02:49
(UTC+00:00)

A-11 Canister half - Pass Details

Date: 27 November 2019
Orbit: 1526 x 1683 km, 47.3° (Epoch: 14 December)

Event Time Altitude Azimuth Distance (km) Brightness Sun altitude
Rises 05:18:33 0° 204° (SSW) 4,853 11.6 -6.7°
Reaches altitude 10° 05:21:58 10° 197° (SSW) 3,886 11.2 -5.9°
Maximum altitude 05:31:07 40° 130° (SE) 2,286 10.7 -3.8°
Drops below altitude 10° 05:40:22 10° 64° (ENE) 3,938 11.9 -1.7°
Sets 05:43:48 0° 57° (ENE) 4,924 12.2 -0.9°
